TimeMST,TemperatureF,Dew PointF,Humidity,Sea Level PressureIn,VisibilityMPH,Wind Direction,Wind SpeedMPH,Gust SpeedMPH,PrecipitationIn,Events,Conditions,WindDirDegrees,DateUTC
12:53 AM,21.9,7.0,53,30.32,10.0,WSW,11.5,-,N/A,,Clear,240,2013-01-20 07:53:00
1:53 AM,23.0,6.1,48,30.30,10.0,WSW,13.8,-,N/A,,Clear,250,2013-01-20 08:53:00
2:53 AM,23.0,5.0,46,30.32,10.0,WSW,11.5,-,N/A,,Clear,250,2013-01-20 09:53:00
3:53 AM,23.0,5.0,46,30.30,10.0,WSW,10.4,-,N/A,,Clear,250,2013-01-20 10:53:00
4:53 AM,24.1,5.0,44,30.29,10.0,WSW,21.9,27.6,N/A,,Clear,250,2013-01-20 11:53:00
5:53 AM,21.9,5.0,48,30.35,10.0,WSW,16.1,23.0,N/A,,Clear,250,2013-01-20 12:53:00
6:53 AM,24.1,5.0,44,30.34,10.0,WSW,17.3,-,N/A,,Clear,250,2013-01-20 13:53:00
7:53 AM,24.1,5.0,44,30.35,10.0,WSW,6.9,20.7,N/A,,Clear,240,2013-01-20 14:53:00
8:53 AM,25.0,6.1,45,30.35,10.0,WSW,10.4,19.6,N/A,,Clear,240,2013-01-20 15:53:00
9:53 AM,28.0,6.1,39,30.36,10.0,WNW,4.6,-,N/A,,Clear,290,2013-01-20 16:53:00
10:53 AM,28.9,9.0,43,30.35,10.0,West,13.8,20.7,N/A,,Clear,270,2013-01-20 17:53:00
11:53 AM,32.0,8.1,37,30.31,10.0,West,20.7,29.9,N/A,,Clear,260,2013-01-20 18:53:00
12:53 PM,32.0,8.1,37,30.29,10.0,West,15.0,21.9,N/A,,Clear,260,2013-01-20 19:53:00
1:53 PM,33.1,10.0,38,30.25,10.0,West,19.6,29.9,N/A,,Clear,260,2013-01-20 20:53:00
2:53 PM,34.0,9.0,35,30.25,10.0,West,16.1,26.5,N/A,,Clear,260,2013-01-20 21:53:00
3:53 PM,33.1,9.0,37,30.26,10.0,WSW,15.0,-,N/A,,Clear,250,2013-01-20 22:53:00
4:53 PM,30.0,10.0,43,30.30,10.0,WSW,17.3,-,N/A,,Clear,250,2013-01-20 23:53:00
5:53 PM,27.0,9.0,47,30.30,10.0,WSW,12.7,21.9,N/A,,Clear,240,2013-01-21 00:53:00
6:53 PM,27.0,10.0,49,30.31,10.0,WSW,9.2,-,N/A,,Clear,250,2013-01-21 01:53:00
7:53 PM,25.0,9.0,51,30.33,10.0,WSW,9.2,-,N/A,,Clear,240,2013-01-21 02:53:00
8:53 PM,24.1,9.0,53,30.33,10.0,WSW,13.8,-,N/A,,Clear,240,2013-01-21 03:53:00
9:53 PM,21.9,9.0,58,30.35,10.0,SW,11.5,19.6,N/A,,Clear,230,2013-01-21 04:53:00
10:53 PM,21.9,8.1,55,30.34,10.0,WSW,10.4,-,N/A,,Clear,240,2013-01-21 05:53:00
11:53 PM,21.9,8.1,55,30.33,10.0,WSW,11.5,-,N/A,,Clear,240,2013-01-21 06:53:00